Dickinson, ND

4:43 PM MDT on September 19, 2017 (GMT -0600)
Dickinson Municipal

Weather History for KDIK - May, 2013

Change the Weather History Date:

Thursday, May 30, 2013

  Actual Average Record
Temperature  
Mean Temperature 58 °F 57 °F  
Max Temperature 62 °F 70 °F 98 °F (1934)
Min Temperature 53 °F 45 °F 29 °F (1947)
Degree Days  
Heating Degree Days 7 8  
Month to date heating degree days 315 370  
Since 1 July heating degree days 8417 8432  
Cooling Degree Days 0 1  
Month to date cooling degree days 9 1  
Year to date cooling degree days 9 2  
Growing Degree Days 8 (Base 50)    
Moisture  
Dew Point 55 °F    
Average Humidity 94    
Maximum Humidity 100    
Minimum Humidity 87    
Precipitation  
Precipitation 1.23 in 0.09 in 1.23 in (2013)
Month to date precipitation 4.85 2.23  
Year to date precipitation 5.91 5.02  
Sea Level Pressure  
Sea Level Pressure 29.35 in    
Wind  
Wind Speed 17 mph (NE)    
Max Wind Speed 26 mph    
Max Gust Speed 33 mph    
Visibility 4 miles    
Events Fog , Rain    
T = Trace of Precipitation, MM = Missing Value Source: NWS Daily Summary

Daily Weather History Graph

Daily Weather History Graph

Search for Another Location

Airport or City:

Trip Planner

Search our weather history database for the weather conditions in past years. The results will help you decide how hot, cold, wet, or windy it might be!

Date:

Astronomy

May. 30, 2013 Rise Set
Actual Time 5:01 AM MDT 8:36 PM MDT
Civil Twilight 4:23 AM MDT 9:14 PM MDT
Nautical Twilight 3:33 AM MDT 10:05 PM MDT
Astronomical Twilight 2:25 AM MDT 11:13 PM MDT
Moon 12:24 AM MDT (5/30) 11:28 AM MDT (5/30)
Length of Visible Light 16h 50m
Length of Day
15h 34m
Waning Gibbous, 61% of the Moon is Illuminated
May 30
Waning Gibbous
May 31
Last Quarter
Jun 8
New
Jun 16
First Quarter
Jun 23
Full

Hourly Weather History & Observations

Time (MDT) Temp. Dew Point Humidity Pressure Visibility Wind Dir Wind Speed Gust Speed Precip Events Conditions
12:56 AM 59.0 °F 55.0 °F 87% 29.50 in 10.0 mi NE 15.0 mph - N/A   Mostly Cloudy
1:03 AM 59.0 °F 55.4 °F 88% 29.53 in 9.0 mi NE 15.0 mph 21.9 mph N/A   Mostly Cloudy
1:14 AM 57.2 °F 55.4 °F 94% 29.52 in 5.0 mi NE 18.4 mph 24.2 mph N/A   Overcast
1:56 AM 57.9 °F 55.0 °F 90% 29.49 in 6.0 mi NE 18.4 mph - N/A   Overcast
2:12 AM 57.2 °F 55.4 °F 94% 29.52 in 2.5 mi NE 18.4 mph - 0.12 in Rain Rain
2:35 AM 57.2 °F 55.4 °F 94% 29.50 in 3.0 mi NE 17.3 mph 26.5 mph 0.19 in Rain Rain
2:56 AM 55.9 °F 55.0 °F 97% 29.45 in 4.0 mi NE 21.9 mph 27.6 mph 0.23 in Rain Rain
3:56 AM 55.9 °F 54.0 °F 93% 29.44 in 6.0 mi NE 17.3 mph 26.5 mph 0.07 in Rain Light Rain
4:56 AM 55.9 °F 54.0 °F 93% 29.43 in 5.0 mi NE 18.4 mph - 0.01 in Rain Light Rain
5:56 AM 55.0 °F 53.1 °F 93% 29.41 in 3.0 mi NE 21.9 mph 28.8 mph 0.06 in Rain Rain
6:27 AM 53.6 °F 53.6 °F 100% 29.44 in 2.0 mi NE 21.9 mph 31.1 mph 0.10 in Rain Heavy Rain
6:51 AM 53.6 °F 51.8 °F 94% 29.43 in 5.0 mi NE 21.9 mph 32.2 mph 0.16 in Rain Light Rain
6:56 AM 54.0 °F 52.0 °F 93% 29.40 in 5.0 mi NE 25.3 mph 32.2 mph 0.16 in Rain Light Rain
7:56 AM 54.0 °F 52.0 °F 93% 29.39 in 6.0 mi NE 23.0 mph 28.8 mph 0.05 in Rain Light Rain
8:56 AM 53.1 °F 52.0 °F 96% 29.39 in 4.0 mi NE 18.4 mph 25.3 mph 0.06 in Rain Rain
9:56 AM 54.0 °F 53.1 °F 97% 29.38 in 4.0 mi NE 21.9 mph 27.6 mph 0.08 in Rain Light Rain
10:10 AM 53.6 °F 51.8 °F 94% 29.39 in 1.8 mi NNE 18.4 mph 27.6 mph 0.05 in Rain Heavy Rain
10:21 AM 53.6 °F 51.8 °F 94% 29.38 in 1.8 mi NNE 15.0 mph - 0.12 in Rain Heavy Rain
10:31 AM 53.6 °F 51.8 °F 94% 29.38 in 2.5 mi NNE 16.1 mph - 0.17 in Rain Heavy Rain
10:40 AM 53.6 °F 51.8 °F 94% 29.38 in 4.0 mi NNE 18.4 mph 24.2 mph 0.19 in Rain Rain
10:56 AM 54.0 °F 53.1 °F 97% 29.36 in 1.8 mi NNE 16.1 mph 25.3 mph 0.25 in Rain Heavy Rain
11:04 AM 53.6 °F 53.6 °F 100% 29.37 in 3.0 mi NE 19.6 mph 24.2 mph 0.02 in Rain Light Rain
11:56 AM 55.0 °F 54.0 °F 96% 29.34 in 3.0 mi NE 18.4 mph 27.6 mph 0.11 in Rain Rain
12:56 PM 55.9 °F 55.0 °F 97% 29.33 in 9.0 mi NE 19.6 mph 26.5 mph 0.02 in Rain Light Rain
1:29 PM 55.4 °F 55.4 °F 100% 29.34 in 2.0 mi NE 21.9 mph 28.8 mph 0.01 in   Overcast
1:49 PM 57.2 °F 55.4 °F 94% 29.33 in 3.0 mi NE 21.9 mph 27.6 mph 0.02 in Rain Light Rain
1:56 PM 57.0 °F 55.9 °F 96% 29.31 in 2.0 mi NNE 18.4 mph 27.6 mph 0.02 in   Overcast
2:10 PM 57.2 °F 55.4 °F 94% 29.33 in 3.0 mi NNE 21.9 mph 27.6 mph 0.00 in Rain Light Rain
2:20 PM 57.2 °F 55.4 °F 94% 29.32 in 2.5 mi NNE 21.9 mph 27.6 mph 0.00 in Rain Light Rain
2:37 PM 57.2 °F 55.4 °F 94% 29.32 in 1.8 mi NNE 21.9 mph 28.8 mph 0.01 in Rain Light Rain
2:45 PM 57.2 °F 55.4 °F 94% 29.32 in 2.0 mi NNE 23.0 mph 28.8 mph 0.01 in   Overcast
2:52 PM 57.2 °F 55.4 °F 94% 29.32 in 1.2 mi NNE 21.9 mph 29.9 mph 0.02 in   Overcast
2:56 PM 57.0 °F 55.9 °F 96% 29.30 in 1.2 mi NNE 21.9 mph 29.9 mph 0.02 in   Overcast
3:11 PM 57.2 °F 55.4 °F 94% 29.32 in 1.5 mi NNE 21.9 mph 32.2 mph 0.01 in Rain Light Rain
3:23 PM 57.2 °F 55.4 °F 94% 29.31 in 2.5 mi NNE 21.9 mph 28.8 mph 0.02 in Rain Light Rain
3:32 PM 57.2 °F 55.4 °F 94% 29.31 in 3.0 mi NNE 18.4 mph 31.1 mph 0.02 in Rain Light Rain
3:43 PM 57.2 °F 55.4 °F 94% 29.30 in 2.5 mi NNE 21.9 mph 32.2 mph 0.02 in Rain Light Rain
3:56 PM 55.9 °F 55.0 °F 97% 29.28 in 1.2 mi NNE 24.2 mph 29.9 mph 0.04 in Rain Rain
4:27 PM 57.2 °F 55.4 °F 94% 29.29 in 3.0 mi NNE 20.7 mph 29.9 mph 0.05 in Rain Light Rain
4:34 PM 57.2 °F 55.4 °F 94% 29.29 in 1.8 mi NNE 21.9 mph 29.9 mph 0.05 in Rain Light Rain
4:45 PM 55.4 °F 55.4 °F 100% 29.29 in 0.5 mi NNE 21.9 mph 29.9 mph 0.05 in Fog , Rain Light Rain
4:56 PM 55.9 °F 55.9 °F 100% 29.28 in 0.2 mi NNE 25.3 mph 33.4 mph 0.05 in Fog Fog
5:08 PM 57.2 °F 55.4 °F 94% 29.29 in 0.5 mi NNE 23.0 mph 32.2 mph N/A Fog Fog
5:16 PM 57.2 °F 55.4 °F 94% 29.29 in 2.0 mi NNE 19.6 mph 29.9 mph N/A   Overcast
5:23 PM 55.4 °F 55.4 °F 100% 29.29 in 4.0 mi NNE 19.6 mph 29.9 mph N/A   Overcast
5:27 PM 55.4 °F 55.4 °F 100% 29.29 in 1.8 mi NNE 19.6 mph 29.9 mph N/A   Overcast
5:37 PM 55.4 °F 55.4 °F 100% 29.29 in 0.5 mi NNE 20.7 mph 31.1 mph N/A Fog Fog
5:56 PM 57.0 °F 55.9 °F 96% 29.28 in 1.0 mi NNE 23.0 mph 28.8 mph N/A   Mist
6:13 PM 57.2 °F 55.4 °F 94% 29.29 in 0.5 mi NNE 23.0 mph 31.1 mph N/A Fog Fog
6:20 PM 57.2 °F 55.4 °F 94% 29.29 in 0.2 mi NNE 24.2 mph 29.9 mph N/A Fog Fog
6:47 PM 57.2 °F 57.2 °F 100% 29.29 in 1.0 mi NNE 16.1 mph 24.2 mph N/A   Mist
6:51 PM 57.2 °F 57.2 °F 100% 29.29 in 4.0 mi NNE 18.4 mph - N/A   Overcast
6:56 PM 57.9 °F 57.9 °F 100% 29.28 in 6.0 mi NNE 19.6 mph 26.5 mph N/A   Overcast
7:19 PM 60.8 °F 60.8 °F 100% 29.30 in 7.0 mi NE 11.5 mph - N/A   Overcast
7:43 PM 62.6 °F 59.0 °F 88% 29.30 in 10.0 mi East 9.2 mph - N/A   Mostly Cloudy
7:45 PM 62.6 °F 59.0 °F 88% 29.30 in 10.0 mi East 9.2 mph - N/A   Scattered Clouds
7:56 PM 61.0 °F 57.9 °F 90% 29.29 in 10.0 mi East 11.5 mph - N/A   Partly Cloudy
8:56 PM 59.0 °F 57.0 °F 93% 29.32 in 10.0 mi East 6.9 mph - N/A   Partly Cloudy
9:25 PM 59.0 °F 55.4 °F 88% 29.36 in 10.0 mi ENE 6.9 mph - N/A   Scattered Clouds
9:33 PM 59.0 °F 57.2 °F 94% 29.36 in 9.0 mi ENE 11.5 mph - N/A   Mostly Cloudy
9:43 PM 59.0 °F 57.2 °F 94% 29.37 in 6.0 mi ENE 13.8 mph - N/A   Overcast
9:53 PM 59.0 °F 57.2 °F 94% 29.36 in 1.8 mi NE 10.4 mph - N/A   Overcast
9:56 PM 59.0 °F 57.9 °F 96% 29.35 in 1.2 mi ENE 6.9 mph - N/A   Overcast
10:13 PM 59.0 °F 59.0 °F 100% 29.36 in 0.2 mi ENE 6.9 mph - N/A Fog Fog
10:25 PM 59.0 °F 59.0 °F 100% 29.36 in 1.0 mi ENE 3.5 mph - N/A   Overcast
10:29 PM 59.0 °F 59.0 °F 100% 29.36 in 3.0 mi ENE 5.8 mph - N/A   Overcast
10:37 PM 57.2 °F 57.2 °F 100% 29.36 in 9.0 mi NE 5.8 mph - N/A   Overcast
10:56 PM 59.0 °F 57.0 °F 93% 29.35 in 10.0 mi NE 3.5 mph - N/A   Overcast
11:33 PM 57.2 °F 57.2 °F 100% 29.37 in 7.0 mi NNE 5.8 mph - N/A   Overcast
11:56 PM 57.9 °F 55.9 °F 93% 29.36 in 10.0 mi NE 4.6 mph - 0.00 in   Overcast